Notices

What's New in latest Release from April 7th, 2021:

- Updated Glossary, including Speed of Maximum Gust, and Total Hourly Precipitation

- Updated national and regional climate services offices contacts and prices information

- Addition of station inventory lists for 1981-2010, 1971-2000, and 1961-1990 Normals.

If you haven't already, please take our survey and provide feedback about our website: https://eccc.sondage-survey.ca/f/LanguageSelection.aspx?s=442ca660-fcf1-47c0-95a9-59707d6fd709

Hourly Data Report for February 23, 2012

HALIFAX STANFIELD INT'L A
NOVA SCOTIA

44°52'48.060" N
63°30'00.050" W
145.40 m
8202250
71395
YHZ

Download Data

Hourly Data (February 2012)
Hourly Data Report for February 23, 2012
TIME
LST
Temp Definition
°C
Dew Point Definition
°C
Rel Hum Definition
%
Precip. Amount Definition
mm

Wind Dir Definition
10's deg

Wind Spd Definition
km/h
Visibility Definition
km
Stn Press Definition
kPa
Hmdx Definition


Wind Chill Definition


Weather Definition


00:00 1.5 1.2 98   22 15 16.1 98.50     Cloudy
01:00 2.0 1.7 98   21 11 16.1 98.55     Cloudy
02:00 1.2 1.0 99   22 13 1.2 98.64     Fog
03:00 0.1 -0.1 99   20 7 0.4 98.67     Fog
04:00 -0.6 -0.9 98   18 11 0.4 98.70   -4 Freezing Fog
05:00 -0.2 -0.4 99   17 13 0.8 98.66   -4 Freezing Fog
06:00 0.2 -0.1 98   16 17 0.4 98.70     Fog
07:00 0.1 -0.2 98   16 19 0.4 98.65     Fog
08:00 -0.1 -0.2 99   15 22 0.2 98.64   -6 Freezing Fog
09:00 0.3 0.3 100   15 20 0.2 98.61     Fog
10:00 2.7 2.7 100   16 28 0.4 98.64     Fog
11:00 2.9 2.9 100   17 26 16.1 98.60     Cloudy
12:00 3.6 3.3 98   16 22 16.1 98.47     Cloudy
13:00 4.1 2.5 89   13 26 24.1 98.23     Cloudy
14:00 3.9 2.1 88   13 28 24.1 98.06     Cloudy
15:00 3.7 2.6 93   13 19 4.8 97.89     Rain Showers,Fog
16:00 3.7 3.1 96   12 20 4.8 97.71     Rain Showers,Fog
17:00 3.3 2.8 97   11 30 4.8 97.40     Rain Showers,Fog
18:00 3.6 3.3 98   13 33 3.2 97.26     Fog
19:00 3.7 3.6 99   15 13 3.2 97.17     Fog
20:00 3.7 3.6 99   20 22 0.4 97.11     Fog
21:00 4.0 4.0 100   23 28 4.8 97.11     Fog
22:00 3.8 3.7 99   27 22 16.1 97.18     Cloudy
23:00 2.6 1.2 90   27 28 24.1 97.32     Cloudy

Notes on Data Quality.

Legend

  • E = Estimated
  • M = Missing
  • NA = Not Available*
  • [empty] = Indicates an unobserved value
Date modified: